Location: Dammartin
(48.9032°N, 1.6195°E)
Time: 17:51:25
(UTC+00:00)

BlueWalker 3 - Pass Details

Date: 25 April 2024
Orbit: 482 x 494 km, 53.2° (Epoch: 22 May)

Event Time Altitude Azimuth Distance (km) Brightness Sun altitude
Rises 22:35:39 0° 295° (WNW) 2,583 6.2 -25.3°
Reaches altitude 10° 22:37:50 10° 295° (WNW) 1,700 5.2 -25.4°
Enters shadow 22:40:09 35° 294° (WNW) 820 3.3 -25.5°
